Change the Weather History Date:

Saturday, January 21, 2012

  Actual Average Record
Temperature  
Mean Temperature 52 °F 42 °F  
Max Temperature 67 °F 52 °F 77 °F (1933)
Min Temperature 37 °F 32 °F 13 °F (1984)
Degree Days  
Heating Degree Days 13 23  
Month to date heating degree days 357 480  
Since 1 July heating degree days 1385 1564  
Cooling Degree Days 0 0  
Month to date cooling degree days 0 0  
Year to date cooling degree days 0 0  
Growing Degree Days 2 (Base 50)    
Moisture  
Dew Point 43 °F    
Average Humidity 88    
Maximum Humidity 96    
Minimum Humidity 79    
Precipitation  
Precipitation 0.07 in 0.16 in 3.75 in (1935)
Month to date precipitation 0.60 3.21  
Year to date precipitation 0.60 3.21  
Sea Level Pressure  
Sea Level Pressure 29.99 in    
Wind  
Wind Speed 13 mph (NNE)    
Max Wind Speed 23 mph    
Max Gust Speed 28 mph    
Visibility 8 miles    
Events Rain , Snow , Thunderstorm    
T = Trace of Precipitation, MM = Missing Value Source: NWS Daily Summary

Daily Weather History Graph

Daily Weather History Graph

Search for Another Location

Airport or City:

Trip Planner

Search our weather history database for the weather conditions in past years. The results will help you decide how hot, cold, wet, or windy it might be!

Date:

Astronomy

Jan. 21, 2012 Rise Set
Actual Time 7:06 AM CST 5:24 PM CST
Civil Twilight 6:39 AM CST 5:50 PM CST
Nautical Twilight 6:09 AM CST 6:21 PM CST
Astronomical Twilight 5:39 AM CST 6:50 PM CST
Moon 5:35 AM CST (1/21) 4:02 PM CST (1/21)
Length of Visible Light 11h 11m
Length of Day
10h 17m
Waning Crescent, 3% of the Moon is Illuminated
Jan 21
Waning Crescent
Jan 23
New
Jan 30
First Quarter
Feb 7
Full
Feb 14
Last Quarter

Hourly Weather History & Observations

Time (CST) Temp. Windchill Dew Point Humidity Pressure Visibility Wind Dir Wind Speed Gust Speed Precip Events Conditions
12:53 AM 66.0 °F - 63.0 °F 90% 29.86 in 10.0 mi SSW 15.0 mph - N/A   Mostly Cloudy
1:53 AM 66.2 °F - 62.6 °F 88% 29.84 in 10.0 mi SSW 17.3 mph - N/A   Scattered Clouds
2:21 AM 66.2 °F - 62.6 °F 88% 29.84 in 10.0 mi SSW 16.1 mph - N/A Thunderstorm Overcast
2:36 AM 66.2 °F - 62.6 °F 88% 29.84 in 10.0 mi SSW 16.1 mph - N/A   Mostly Cloudy
2:53 AM 66.0 °F - 63.0 °F 90% 29.86 in 10.0 mi SSW 15.0 mph - N/A   Overcast
3:39 AM 60.8 °F - 57.2 °F 88% 29.86 in 9.0 mi NW 11.5 mph 20.7 mph N/A   Mostly Cloudy
3:50 AM 59.0 °F - 55.4 °F 88% 29.86 in 9.0 mi North 12.7 mph - N/A   Overcast
3:53 AM 57.9 °F - 55.0 °F 90% 29.88 in 8.0 mi North 12.7 mph - N/A   Overcast
4:05 AM 53.6 °F - 51.8 °F 94% 29.87 in 6.0 mi North 17.3 mph - N/A   Overcast
4:14 AM 51.8 °F - 50.0 °F 94% 29.87 in 6.0 mi NNE 16.1 mph - 0.01 in Rain Light Rain
4:33 AM 50.0 °F - 48.2 °F 94% 29.89 in 6.0 mi North 16.1 mph - 0.01 in Rain , Thunderstorm Light Thunderstorms and Rain
4:53 AM 48.0 °F - 46.0 °F 93% 29.93 in 5.0 mi North 17.3 mph 26.5 mph 0.07 in Rain , Thunderstorm Light Thunderstorms and Rain
5:02 AM 48.2 °F - 46.4 °F 93% 29.92 in 9.0 mi North 15.0 mph - 0.00 in Rain , Thunderstorm Light Thunderstorms and Rain
5:19 AM 46.4 °F 39.5 °F 44.6 °F 93% 29.93 in 8.0 mi North 17.3 mph - 0.00 in Thunderstorm Overcast
5:28 AM 46.4 °F 40.1 °F 44.6 °F 93% 29.92 in 8.0 mi North 15.0 mph - 0.00 in   Overcast
5:53 AM 46.0 °F 39.9 °F 44.1 °F 93% 29.97 in 7.0 mi North 13.8 mph - 0.00 in   Overcast
6:02 AM 46.4 °F 39.2 °F 44.6 °F 93% 29.95 in 7.0 mi North 18.4 mph 23.0 mph N/A   Overcast
6:53 AM 44.6 °F 36.9 °F 42.8 °F 93% 29.99 in 8.0 mi North 18.4 mph 26.5 mph N/A   Overcast
7:41 AM 42.8 °F 35.1 °F 41.0 °F 93% 30.01 in 6.0 mi North 16.1 mph - 0.00 in   Overcast
7:53 AM 43.0 °F 34.8 °F 41.0 °F 93% 30.04 in 5.0 mi North 18.4 mph - 0.00 in   Overcast
8:21 AM 42.8 °F 35.8 °F 39.2 °F 87% 30.01 in 6.0 mi NNE 13.8 mph - N/A   Overcast
8:49 AM 44.6 °F 38.4 °F 39.2 °F 81% 30.03 in 8.0 mi North 12.7 mph - N/A   Overcast
8:53 AM 44.1 °F 37.7 °F 39.9 °F 85% 30.06 in 8.0 mi NNE 12.7 mph - N/A   Overcast
9:24 AM 44.6 °F 38.1 °F 41.0 °F 87% 30.04 in 7.0 mi NNE 13.8 mph - N/A   Overcast
9:43 AM 44.6 °F 37.4 °F 39.2 °F 81% 30.06 in 7.0 mi North 16.1 mph - N/A   Overcast
9:53 AM 44.1 °F 37.7 °F 39.9 °F 85% 30.08 in 7.0 mi NNE 12.7 mph - N/A   Overcast
10:53 AM 44.1 °F 36.2 °F 39.9 °F 85% 30.08 in 9.0 mi NNE 18.4 mph - N/A   Overcast
11:53 AM 44.1 °F 37.1 °F 39.0 °F 82% 30.07 in 10.0 mi North 15.0 mph - N/A   Overcast
12:53 PM 43.0 °F 35.7 °F 37.9 °F 82% 30.06 in 10.0 mi NNE 15.0 mph 23.0 mph N/A   Overcast
1:53 PM 41.0 °F 33.1 °F 37.0 °F 86% 30.06 in 8.0 mi NNE 15.0 mph - N/A   Overcast
2:53 PM 41.0 °F 34.3 °F 36.0 °F 82% 30.08 in 7.0 mi NNE 11.5 mph - N/A   Overcast
3:53 PM 39.9 °F 32.5 °F 35.1 °F 83% 30.09 in 9.0 mi NE 12.7 mph - N/A   Overcast
4:53 PM 39.0 °F 31.4 °F 35.1 °F 86% 30.08 in 8.0 mi NNE 12.7 mph - N/A   Overcast
5:53 PM 37.9 °F 29.6 °F 34.0 °F 86% 30.08 in 9.0 mi NE 13.8 mph - 0.00 in Snow Light Snow
6:27 PM 37.4 °F 30.3 °F 33.8 °F 87% 30.07 in 8.0 mi NNE 10.4 mph - 0.00 in Snow Light Snow
6:53 PM 37.9 °F 31.5 °F 34.0 °F 86% 30.09 in 8.0 mi NNE 9.2 mph - 0.00 in   Overcast
7:07 PM 37.4 °F 29.8 °F 33.8 °F 87% 30.05 in 8.0 mi NNE 11.5 mph - N/A   Overcast
7:17 PM 37.4 °F 29.8 °F 35.6 °F 93% 30.05 in 8.0 mi NE 11.5 mph - N/A   Overcast
7:35 PM 37.4 °F 30.3 °F 35.6 °F 93% 30.05 in 7.0 mi NNE 10.4 mph - N/A   Overcast
7:53 PM 37.9 °F 30.9 °F 35.1 °F 89% 30.07 in 6.0 mi NNE 10.4 mph - N/A   Overcast
8:01 PM 37.4 °F 30.3 °F 35.6 °F 93% 30.04 in 6.0 mi NNE 10.4 mph - N/A   Overcast
8:53 PM 37.9 °F 32.7 °F 36.0 °F 93% 30.07 in 5.0 mi NNE 6.9 mph - N/A   Overcast
9:53 PM 39.2 °F 33.6 °F 37.4 °F 93% 30.03 in 6.0 mi NNE 8.1 mph - N/A   Overcast
10:53 PM 41.0 °F 37.1 °F 37.9 °F 89% 30.05 in 6.0 mi NE 5.8 mph - N/A   Overcast
11:53 PM 41.0 °F 37.1 °F 39.2 °F 93% 30.02 in 6.0 mi ENE 5.8 mph - N/A   Overcast